CW9887 Weather Reports


Display with metric or nautical units.
time (UTC)temp
F
wind
direction
speed
MPH
gust
MPH
rain 1hr
in
rain 24hr
in
rain mn
in
humidity
%
barometer
mb
20181115143756 20 70 1.0 0.0 0.00 0.00 0.00 63 1033.5
20181115142754 19 244 2.0 0.0 0.00 0.00 0.00 65 1033.9
20181115141759 18 264 1.0 0.0 0.00 0.00 0.00 64 1034.0
20181115140801 18 278 0.0 0.0 0.00 0.00 0.00 65 1033.8
20181115135738 17 243 1.0 0.0 0.00 0.00 0.00 67 1034.1
20181115134742 17 192 0.0 0.0 0.00 0.00 0.00 67 1034.1
20181115133743 17 144 1.0 0.0 0.00 0.00 0.00 67 1034.2
20181115132745 16 190 1.0 0.0 0.00 0.00 0.00 68 1034.0
20181115131749 16 277 1.0 0.0 0.00 0.00 0.00 69 1034.1
20181115130754 16 51 1.0 0.0 0.00 0.00 0.00 70 1033.9
20181115130033 15 36 1.0 0.0 0.00 0.00 0.00 70 1036.3
20181115125738 15 262 1.0 0.0 0.00 0.00 0.00 70 1033.5
20181115124743 15 202 1.0 0.0 0.00 0.00 0.00 70 1033.4
20181115123743 14 115 1.0 0.0 0.00 0.00 0.00 71 1033.4
20181115122742 14 148 1.0 0.0 0.00 0.00 0.00 73 1033.6
20181115121745 14 145 0.0 0.0 0.00 0.00 0.00 73 1033.9
20181115120805 14 158 1.0 0.0 0.00 0.00 0.00 73 1033.5
20181115115737 14 121 1.0 0.0 0.00 0.00 0.00 73 1033.1
20181115114742 14 234 1.0 0.0 0.00 0.00 0.00 73 1033.0
20181115113745 14 142 2.0 0.0 0.00 0.00 0.00 73 1033.2
20181115112749 14 38 2.0 0.0 0.00 0.00 0.00 72 1033.4
20181115111755 14 251 2.0 0.0 0.00 0.00 0.00 73 1033.5
20181115111512 13 274 2.0 0.0 0.00 0.00 0.00 73 1036.3
20181115110759 14 273 2.0 0.0 0.00 0.00 0.00 73 1033.7
20181115105744 14 278 3.0 0.0 0.00 0.00 0.00 73 1033.8
20181115104748 14 271 2.0 0.0 0.00 0.00 0.00 72 1033.5
20181115103748 14 258 2.0 0.0 0.00 0.00 0.00 71 1033.4
20181115102747 14 242 3.0 0.0 0.00 0.00 0.00 71 1033.0
20181115101752 14 238 2.0 0.0 0.00 0.00 0.00 71 1033.0
20181115100753 14 257 2.0 0.0 0.00 0.00 0.00 75 1033.0
20181115095753 13 281 2.0 0.0 0.00 0.00 0.00 75 1033.5
20181115094739 13 292 2.0 0.0 0.00 0.00 0.00 74 1033.8
20181115093743 13 269 2.0 0.0 0.00 0.00 0.00 74 1033.6
20181115092745 13 239 2.0 0.0 0.00 0.00 0.00 74 1033.2
20181115091751 13 257 2.0 0.0 0.00 0.00 0.00 74 1033.1
20181115090751 13 275 2.0 0.0 0.00 0.00 0.00 72 1032.9
20181115090012 13 265 1.0 0.0 0.00 0.00 0.00 72 1035.3
20181115085737 13 265 1.0 0.0 0.00 0.00 0.00 72 1032.5
20181115084743 13 251 2.0 0.0 0.00 0.00 0.00 72 1032.5
20181115083745 13 254 1.0 0.0 0.00 0.00 0.00 73 1032.9
20181115082745 13 251 1.0 0.0 0.00 0.00 0.00 72 1033.0
20181115081748 13 93 0.0 0.0 0.00 0.00 0.00 72 1033.1
20181115080749 13 93 2.0 0.0 0.00 0.00 0.00 72 1033.4
20181115075748 13 111 3.0 0.0 0.00 0.00 0.00 71 1033.0
20181115074753 13 256 3.0 0.0 0.00 0.00 0.00 73 1033.1
20181115073756 13 266 4.0 0.0 0.00 0.00 0.00 75 1033.3
20181115072736 13 279 2.0 0.0 0.00 0.00 0.00 74 1033.5
20181115071742 13 281 1.0 0.0 0.00 0.00 0.00 73 1034.0
20181115070748 13 236 0.0 0.0 0.00 0.00 0.00 72 1033.8
20181115065746 13 236 0.0 0.0 0.00 0.00 0.00 72 1033.6
20181115064747 13 279 3.0 0.0 0.00 0.00 0.00 72 1033.5
20181115063750 13 263 4.0 0.0 0.00 0.00 0.00 74 1033.1
20181115062750 13 250 3.0 0.0 0.00 0.00 0.00 75 1033.2
20181115060750 13 250 2.0 0.0 0.00 0.00 0.00 75 1033.2
20181115055750 13 251 1.0 0.0 0.00 0.00 0.00 75 1033.6
20181115054755 13 273 1.0 0.0 0.00 0.00 0.00 75 1033.4
20181115054533 13 230 1.0 0.0 0.00 0.00 0.00 75 1036.2
20181115053759 13 237 1.0 0.0 0.00 0.00 0.00 76 1033.5
20181115052744 13 206 1.0 0.0 0.00 0.00 0.00 77 1033.5
20181115051752 13 206 0.0 0.0 0.00 0.00 0.00 76 1033.4
20181115050825 13 206 0.0 0.0 0.00 0.00 0.00 76 1033.3
20181115045740 13 205 0.0 0.0 0.00 0.00 0.00 75 1032.8
20181115044744 13 205 0.0 0.0 0.00 0.00 0.00 74 1032.8
20181115043745 13 205 0.0 0.0 0.00 0.00 0.00 74 1032.9
20181115042745 13 133 0.0 0.0 0.00 0.00 0.00 75 1032.8
20181115041746 13 91 1.0 0.0 0.00 0.00 0.00 75 1032.9
20181115040749 14 118 2.0 0.0 0.00 0.00 0.00 74 1032.9
20181115035750 14 227 2.0 0.0 0.00 0.00 0.00 74 1033.0
20181115034756 14 276 1.0 0.0 0.00 0.00 0.00 73 1033.5
20181115034518 13 244 1.0 0.0 0.00 0.00 0.00 73 1035.4
20181115033758 14 232 1.0 0.0 0.00 0.00 0.00 72 1033.3
20181115032744 14 201 2.0 0.0 0.00 0.00 0.00 71 1033.1
20181115031746 14 264 3.0 0.0 0.00 0.00 0.00 70 1033.1
20181115030747 15 266 1.0 0.0 0.00 0.00 0.00 69 1032.7
20181115025746 15 228 2.0 0.0 0.00 0.00 0.00 68 1032.7
20181115024751 15 161 3.0 0.0 0.00 0.00 0.00 68 1032.7
20181115023753 15 255 2.0 0.0 0.00 0.00 0.00 69 1032.6
20181115022751 15 348 2.0 0.0 0.00 0.00 0.00 70 1032.6
20181115021756 15 26 3.0 0.0 0.00 0.00 0.00 69 1032.5
20181115021513 15 235 3.0 0.0 0.00 0.00 0.00 69 1035.0
20181115020757 15 109 3.0 0.0 0.00 0.00 0.00 68 1032.5
20181115015739 15 110 2.0 0.0 0.00 0.00 0.00 69 1032.1
20181115014745 15 260 2.0 0.0 0.00 0.00 0.00 69 1032.0
20181115013750 15 30 2.0 0.0 0.00 0.00 0.00 68 1032.4
20181115012754 16 17 1.0 0.0 0.00 0.00 0.00 66 1032.2
20181115011759 16 133 2.0 0.0 0.00 0.00 0.00 65 1031.8
20181115010740 16 39 2.0 0.0 0.00 0.00 0.00 65 1031.6
20181115005742 16 72 2.0 0.0 0.00 0.00 0.00 64 1031.8
20181115004746 16 64 2.0 0.0 0.00 0.00 0.00 64 1031.9
20181115003745 16 148 2.0 0.0 0.00 0.00 0.00 64 1031.7
20181115002743 16 228 2.0 0.0 0.00 0.00 0.00 63 1031.7
20181115001749 16 42 2.0 0.0 0.00 0.00 0.00 63 1031.4
20181115000748 16 57 3.0 0.0 0.00 0.00 0.00 63 1031.1
20181114235749 16 57 3.0 0.0 0.00 0.00 0.00 64 1031.1
20181114234755 17 234 3.0 0.0 0.00 0.00 0.00 63 1031.2
20181114234507 16 248 3.0 0.0 0.00 0.00 0.00 63 1033.3
20181114233743 17 212 2.0 0.0 0.00 0.00 0.00 64 1030.9
20181114232741 17 212 1.0 0.0 0.00 0.00 0.00 64 1031.0
20181114231745 17 136 2.0 0.0 0.00 0.00 0.00 63 1030.8
20181114230745 17 182 2.0 0.0 0.00 0.00 0.00 64 1030.7
20181114225742 17 310 2.0 0.0 0.00 0.00 0.00 63 1030.2
20181114224745 17 67 2.0 0.0 0.00 0.00 0.00 64 1029.9
20181114223745 17 93 2.0 0.0 0.00 0.00 0.00 63 1029.7
20181114222744 18 160 3.0 0.0 0.00 0.00 0.00 63 1029.6
20181114220740 18 236 2.0 0.0 0.00 0.00 0.00 61 1029.0
20181114215747 18 212 3.0 0.0 0.00 0.00 0.00 61 1028.6
20181114214749 19 58 3.0 0.0 0.00 0.00 0.00 61 1028.2
20181114213750 19 255 3.0 0.0 0.00 0.00 0.00 61 1027.9
20181114212747 19 94 4.0 0.0 0.00 0.00 0.00 61 1027.7
20181114211750 19 73 4.0 0.0 0.00 0.00 0.00 62 1027.8
20181114210751 20 240 3.0 0.0 0.00 0.00 0.00 60 1027.6
20181114205750 21 344 4.0 0.0 0.00 0.00 0.00 58 1027.3
20181114204756 22 319 3.0 0.0 0.00 0.00 0.00 57 1027.2
20181114203800 22 249 4.0 0.0 0.00 0.00 0.00 55 1027.0
20181114202740 23 31 4.0 0.0 0.00 0.00 0.00 55 1026.5
20181114201748 24 242 4.0 0.0 0.00 0.00 0.00 51 1026.3
20181114200752 24 123 3.0 0.0 0.00 0.00 0.00 51 1026.0
20181114195757 25 205 4.0 0.0 0.00 0.00 0.00 49 1025.9
20181114194743 25 126 7.0 0.0 0.00 0.00 0.00 41 1025.6
20181114193745 25 285 7.0 0.0 0.00 0.00 0.00 41 1024.8
20181114192744 25 276 8.0 0.0 0.00 0.00 0.00 39 1024.7
20181114191748 26 269 5.0 0.0 0.00 0.00 0.00 39 1024.4
20181114190748 26 296 5.0 0.0 0.00 0.00 0.00 42 1024.4
20181114185749 25 236 7.0 0.0 0.00 0.00 0.00 40 1024.2
20181114184755 26 246 5.0 0.0 0.00 0.00 0.00 42 1023.9
20181114184512 26 297 5.0 0.0 0.00 0.00 0.00 43 1025.9
20181114183757 26 316 7.0 0.0 0.00 0.00 0.00 42 1023.8
20181114182738 27 5 5.0 0.0 0.00 0.00 0.00 40 1023.4
20181114181744 27 243 6.0 0.0 0.00 0.00 0.00 43 1023.3
20181114180751 26 324 5.0 0.0 0.00 0.00 0.00 44 1022.9
20181114175750 26 208 6.0 0.0 0.00 0.00 0.00 44 1023.0
20181114174755 27 186 5.0 0.0 0.00 0.00 0.00 43 1023.1
20181114173757 27 319 5.0 0.0 0.00 0.00 0.00 43 1022.9
20181114172756 27 23 4.0 0.0 0.00 0.00 0.00 51 1023.0
20181114171740 25 307 5.0 0.0 0.00 0.00 0.00 52 1023.3
20181114171539 25 253 5.0 0.0 0.00 0.00 0.00 52 1025.2
20181114170743 26 267 5.0 0.0 0.00 0.00 0.00 52 1023.3
20181114165744 26 212 6.0 0.0 0.00 0.00 0.00 52 1023.1
20181114164749 25 219 6.0 0.0 0.00 0.00 0.00 56 1023.3
20181114163749 25 205 5.0 0.0 0.00 0.00 0.00 57 1023.0
20181114162749 25 217 7.0 0.0 0.00 0.00 0.00 57 1022.9
20181114161753 25 272 5.0 0.0 0.00 0.00 0.00 57 1022.8
20181114160758 25 220 6.0 0.0 0.00 0.00 0.00 57 1022.7
20181114155756 26 171 6.0 0.0 0.00 0.00 0.00 55 1022.5
20181114154740 26 311 7.0 0.0 0.00 0.00 0.00 52 1022.7
20181114154504 25 252 8.0 0.0 0.00 0.00 0.00 52 1024.3
20181114153801 24 311 7.0 0.0 0.00 0.00 0.00 55 1022.5
20181114152757 24 213 6.0 0.0 0.00 0.00 0.00 59 1022.5
20181114151759 23 286 7.0 0.0 0.00 0.00 0.00 60 1022.4
20181114151526 23 86 6.0 0.0 0.00 0.00 0.00 60 1024.4
20181114150759 24 264 6.0 0.0 0.00 0.00 0.00 61 1022.2
20181114145738 23 249 6.0 0.0 0.00 0.00 0.00 62 1022.3
20181114144742 23 62 4.0 0.0 0.00 0.00 0.00 66 1022.0